Location: Bernières
(49.2332°N, 1.3410°E)
Time: 03:47:31
(UTC+00:00)

Daily predictions for brighter satellites

Satellite Brightness Start Highest point End
(mag) Time Altitude Azimuth Time Altitude Azimuth Time Altitude Azimuth
H-2A R/B 4.1 02:59:15 10° NE 03:02:39 22° E 03:02:39 22° E
NOSS 3-1 (A) 4.1 03:23:44 70° SSE 03:23:44 70° SSE 03:31:29 10° SE
Cosmos 1980 Rocket 3.6 03:23:20 32° ESE 03:23:59 33° ESE 03:28:56 10° NE
USA 281 4.1 03:22:04 10° ESE 03:28:15 46° NE 03:32:53 18° NNW
ATLAS 3B R/B 3.1 03:27:51 60° N 03:29:11 71° NE 03:36:56 10° SE
USA 267 3.8 03:32:13 10° ENE 03:38:21 46° N 03:38:49 45° N
Cosmos 1697 Rocket 3.3 03:42:44 50° NNE 03:42:44 50° NNE 03:46:53 10° NNE
ATLAS CENTAUR R/B 3.9 03:43:56 17° ENE 03:43:56 17° ENE 03:44:59 10° NE
Lacrosse 4 Rocket 3.6 03:49:00 21° SE 03:49:00 21° SE 03:50:27 10° SE
ATLAS 2AS CENTAUR R/B 2.6 03:47:22 83° SW 03:47:42 89° NW 03:54:45 10° NE
Cosmos 1452 Rocket 4.2 03:52:06 47° NNE 03:52:06 47° NNE 03:55:49 10° NNE
Cosmos 1818 4.4 03:51:22 44° SE 03:52:07 47° ESE 03:57:22 10° NE
USA 59 Rocket 1.8 03:53:36 26° NE 03:53:36 26° NE 03:56:54 10° E
CZ-2C R/B 3.8 03:54:18 10° NNE 03:56:41 30° NNE 03:56:41 30° NNE
Cosmos 2263 Rocket 2.1 04:00:00 81° ESE 04:00:00 81° ESE 04:05:27 10° SSE
Cosmos 2082 3.8 04:03:03 59° N 04:04:05 75° ENE 04:09:44 10° SE
Cosmos 2227 Rocket 4.4 04:13:54 11° S 04:13:54 11° S 04:14:07 10° S
Cosmos 2285 Rocket 4.4 04:11:34 46° SSW 04:11:34 46° SSW 04:16:10 10° S
Cosmos 2266 Rocket 4.1 04:04:16 10° S 04:10:41 79° E 04:17:06 10° NNE
BREEZE-M DEB (TANK) 3.5 04:14:05 37° E 04:14:05 37° E 04:17:13 10° E
NOSS 2-1 (E) 4.3 04:20:27 39° NNE 04:20:49 40° NE 04:25:13 10° ESE
SL-16 R/B 4.4 04:19:03 10° SSE 04:23:29 24° ESE 04:27:56 10° NE
USA 229 DEB 4.0 04:21:54 30° NW 04:26:04 83° NE 04:34:11 10° SE
USA 229 4.0 04:22:00 30° NW 04:26:11 82° NE 04:34:16 10° SE
Cosmos 1484 Rocket 3.7 04:24:31 10° NNE 04:27:53 42° E 04:30:40 14° SSE
Cosmos 304 Rocket 4.0 04:26:56 33° N 04:29:02 68° ENE 04:33:45 10° SSE
Cosmos 1655 Rocket 4.2 04:23:52 10° S 04:30:12 73° E 04:36:33 10° NNE
IRAS Rocket 4.1 04:28:20 10° NNE 04:33:52 86° WNW 04:39:24 10° SSW
S3M 3.9 04:29:10 10° NNW 04:35:21 63° W 04:41:26 10° S
Cosmos 2219 3.3 04:35:43 49° WSW 04:35:43 49° WSW 04:40:57 10° S
SKYMED 2 4.4 04:32:06 10° SE 04:36:18 49° ENE 04:40:31 10° N
BREEZE-M DEB (TANK) 4.1 04:39:15 15° SSE 04:39:28 15° SSE 04:41:10 10° ESE
H-2A R/B 2.0 04:37:59 10° N 04:42:52 53° WNW 04:43:09 52° W
BREEZE-M DEB (TANK) 3.4 04:45:30 37° S 04:45:30 37° S 04:50:34 10° ESE
PAYLOAD A 4.4 04:42:36 10° N 04:47:41 42° WNW 04:47:57 42° WNW
SL-8 R/B 4.3 04:49:43 31° SW 04:51:36 51° SSE 04:56:13 10° E
Meteor 1-24 Rocket 3.5 04:46:31 10° SSW 04:51:57 65° WNW 04:57:17 10° N
ARIANE 5 R/B 4.4 04:48:58 10° NNE 04:53:27 31° E 04:57:56 10° SSE
ARGOS 3.1 04:48:33 10° NNE 04:54:01 89° E 04:59:28 10° SSW
Thor Agena Rocket 3.4 04:50:24 10° NNE 04:55:37 75° WNW 05:00:45 10° SSW
Meteor 2-20 Rocket 4.2 04:53:30 10° NNW 04:59:22 65° W 05:05:02 10° S
Cosmos 1844 Rocket 3.3 04:53:53 10° NNW 04:59:28 57° ENE 05:04:59 10° SE
NOSS 2-1 (C) 3.4 04:58:21 39° NW 04:59:43 82° NE 05:04:38 10° SE
Cosmos 2322 Rocket 4.2 04:58:08 10° SSE 05:02:59 30° ESE 05:07:51 10° NE
Sich 1 Rocket 3.7 05:00:37 10° N 05:05:06 76° ENE 05:09:36 10° SSE
H-2A R/B 4.4 05:04:38 10° NE 05:06:41 22° E 05:08:42 10° SSE
Cosmos 1980 Rocket 2.4 05:05:10 28° WSW 05:07:48 47° NW 05:13:14 10° NNE
IRS-1D 3.9 05:03:53 10° N 05:08:25 36° WNW 05:09:55 30° W
YAOGAN 11 4.3 05:06:10 10° SSE 05:10:29 73° ENE 05:14:55 10° N
Cosmos 2369 3.7 05:07:06 14° SW 05:11:53 60° WNW 05:17:29 10° NNE
USA 281 3.5 05:06:32 10° S 05:12:46 45° WSW 05:19:03 10° NW
Cosmos 1378 Rocket 3.4 05:11:11 10° SSW 05:15:36 79° WNW 05:20:01 10° N
FengYun 1-2 T 4.2 05:11:22 10° NNE 05:17:02 85° WNW 05:22:42 10° SSW
Cosmos 1674 Rocket 3.5 05:13:17 10° S 05:17:35 88° E 05:21:57 10° N
Cosmos 1025 Rocket 4.2 05:14:10 10° SSE 05:18:11 44° E 05:22:14 10° NNE
ATLAS CENTAUR R/B 2.1 05:18:23 27° NW 05:18:38 27° NW 05:22:00 10° NNE
Cosmos 371 Rocket 3.7 05:16:34 23° NW 05:19:03 40° WSW 05:23:33 10° S
ATLAS 3B R/B 3.5 05:15:09 21° WNW 05:19:35 37° WSW 05:26:26 10° S
Meteor 2-5 Rocket 4.1 05:15:05 10° SW 05:20:30 42° WNW 05:25:52 10° N
Okean 2 Rocket 3.0 05:16:16 10° NNW 05:20:46 73° W 05:25:11 10° S
USA 267 3.5 05:14:25 10° ESE 05:20:52 66° NNE 05:26:08 16° NW
ARIANE 6 FM1 Upper Stage 3.4 05:17:47 10° SSW 05:21:54 55° SE 05:26:05 10° NE
Cosmos 482 Debris 4.3 05:20:32 28° W 05:22:47 68° NNW 05:26:26 10° ENE
Cosmos 1503 Rocket 4.4 05:18:02 10° NNW 05:23:21 66° ENE 05:28:34 10° SSE
Cosmos 1939 Rocket 3.3 05:20:04 10° N 05:23:25 32° WNW 05:24:25 27° W
Lacrosse 4 Rocket 2.9 05:24:51 18° WSW 05:24:51 18° WSW 05:27:05 10° SSW
Cosmos 1486 Rocket 3.9 05:18:55 10° NNW 05:24:09 84° WSW 05:29:22 10° SSE
COSMO-SKYMED 1 2.6 05:20:04 10° S 05:24:20 56° W 05:28:38 10° NNW
Cosmos 1992 Rocket 3.9 05:19:16 10° SSW 05:24:28 67° WNW 05:29:42 10° NNE
Cosmos 332 Rocket 3.8 05:19:51 10° NNW 05:24:46 85° ENE 05:29:38 10° SSE
Cosmos 1697 Rocket 3.9 05:24:29 21° WNW 05:25:53 23° NW 05:30:19 10° N
NOAA 12 4.1 05:20:32 10° NNE 05:25:54 87° ESE 05:31:14 10° SSW
Cosmos 1844 3.8 05:22:31 10° NNW 05:28:13 80° ENE 05:33:56 10° SSE
NOSS 2-1 (D) 3.7 05:29:47 23° WNW 05:32:02 54° SW 05:37:02 10° SSE
Cosmos 2098 Rocket 2.4 05:28:24 10° N 05:32:18 85° W 05:35:34 10° S
Cosmos 2227 4.3 05:28:53 10° NW 05:34:26 58° WSW 05:40:01 10° S
Cosmos 1818 4.1 05:32:02 18° WSW 05:35:47 41° NW 05:40:59 10° NNE
SJ-11-01 4.2 05:31:32 10° NNE 05:36:12 80° WNW 05:40:51 10° SSW
CZ-2C R/B 4.1 05:33:58 10° NNW 05:35:57 14° NW 05:35:57 14° NW
ATLAS 2AS CENTAUR R/B 3.5 05:34:49 18° W 05:39:26 35° NNW 05:45:42 10° NE
CRYOSAT 2 4.3 05:34:35 10° S 05:39:28 82° W 05:44:23 10° N
USA 59 Rocket 0.4 05:39:52 18° WNW 05:42:31 47° SW 05:47:33 10° SSE
Cosmos 2263 Rocket 3.5 05:41:46 17° W 05:42:59 18° W 05:46:35 10° SW
NOSS 3 (A) 3.1 05:42:42 34° SSW 05:43:11 68° SE 05:44:44 10° NE
Cosmos 1455 Rocket 3.6 05:39:12 10° N 05:43:33 61° ENE 05:47:50 10° SSE
Nadezhda 1 Rocket 4.1 05:38:09 10° N 05:44:21 82° E 05:50:26 10° S
CBERS-1 4.3 05:41:25 10° N 05:46:18 45° WNW 05:51:09 10° SW
Cosmos 2237 4.2 05:41:46 10° SW 05:47:27 72° WNW 05:53:10 10° NNE
SL-08 R/B 4.4 05:45:21 10° SSW 05:51:26 73° W 05:57:38 10° N
Cosmos 1869 3.7 05:47:52 10° N 05:51:39 62° ENE 05:55:26 10° SSE
Cosmos 2151 Rocket 4.4 05:49:53 10° NNW 05:53:46 30° W 05:57:40 10° SSW
Cosmos 1437 Rocket 3.3 05:51:34 10° SW 05:54:47 31° WNW 05:58:04 10° N
Cosmos 2360 Rocket 2.9 05:49:19 10° S 05:54:48 59° ESE 06:00:20 10° NE
Cosmos 1484 Rocket 4.1 05:58:49 10° NNW 06:01:05 16° WNW 06:03:21 10° WSW
DMSP B5D1-3 4.5 05:56:48 10° S 06:01:53 71° WSW 06:07:01 10° NNW
Cosmos 1606 2.3 05:58:51 10° NNW 06:02:13 64° W 06:05:32 10° S
Okean 1 Rocket 3.5 05:58:02 10° NNW 06:02:14 40° W 06:06:23 10° SSW
Cosmos 1354 Rocket 4.0 05:58:03 10° NNW 06:03:23 82° WSW 06:08:39 10° SSE
BREEZE-M DEB (TANK) 2.4 05:59:20 11° W 06:04:34 86° SSW 06:06:46 10° E
Cosmos 2084 Rocket 3.4 06:00:57 10° SW 06:05:15 66° NW 06:09:27 10° NE
SL-16 R/B 2.2 06:01:29 10° SW 06:07:06 64° WNW 06:12:46 10° NNE
Cosmos 292 Rocket 3.9 06:04:08 10° NNW 06:08:58 83° ENE 06:13:47 10° SSE
Gbstr 26 Del rocket 3.5 06:05:34 10° WSW 06:10:21 89° N 06:16:19 10° ENE
CZ-2D R/B 3.0 06:07:45 10° N 06:11:16 63° WNW 06:14:45 10° SSW
TRACE 4.4 06:10:34 10° S 06:13:44 54° WSW 06:16:59 10° NNW
EXPRESS MD2 3.3 06:10:55 10° SW 06:13:56 45° SSE 06:16:08 10° E
ADEOS Rocket 3.5 06:07:43 10° NNE 06:15:05 85° ESE 06:21:40 10° SSW
Cosmos 2228 4.2 06:12:49 10° N 06:16:48 43° ENE 06:20:46 10° SSE
CZ-2D R/B 3.3 06:12:56 10° NNE 06:16:53 82° WNW 06:20:51 10° SSW
SJ-12 4.0 06:15:36 10° N 06:19:26 50° WNW 06:23:15 10° SW
USA 290 3.8 06:19:35 10° N 06:22:28 32° ENE 06:25:19 10° SE
Cosmos 990 Rocket 4.1 06:19:40 10° NNW 06:24:50 83° ENE 06:29:58 10° SSE
USA 215 3.4 06:21:49 10° ENE 06:28:24 84° SSE 06:34:56 10° SW
